Simultaneous Nadir Overpasses (SNOs) Predictions

Prediction of SNOs between GOES-17 and METOP-C Satellite Orbit:

Table of predicted SNOs for the next 14.0 days since TLE Epoch: 1/27/2024
Index Date Time (GOES-17) GOES-17 Lat,Lon METOP-C Lat,Lon Distance(km) Time Diff (sec)
1 01/27/2024 16:40:00 0.02,-104.67 0.73,-107.82 359.87 80
2 01/28/2024 16:22:01 0.02,-104.67 -0.41,-102.83 209.99 80
3 01/30/2024 04:41:00 -0.02,-104.66 -0.66,-107.42 314.33 80
4 01/31/2024 04:17:41 -0.03,-104.66 0.49,-102.43 255.28 80
5 02/01/2024 16:36:30 0.03,-104.68 0.55,-106.98 262.45 80
6 02/02/2024 16:18:31 0.03,-104.68 -0.60,-101.99 307.35 80
7 02/04/2024 04:37:30 -0.02,-104.67 -0.46,-106.57 217.08 80
8 02/05/2024 04:14:09 -0.03,-104.67 0.64,-101.57 352.15 80
9 02/06/2024 16:33:00 0.02,-104.67 0.32,-106.13 166.58 80
10 02/07/2024 16:14:59 0.03,-104.66 -0.78,-101.13 402.89 80
11 02/09/2024 04:33:58 -0.03,-104.65 -0.27,-105.72 121.50 80
